Terminal Aerodrome Forecast
Issued by NWS

Home | Current Version | Previous Version | Text Only | Print | Product List | Glossary On
Versions: 1 2 3 4 5 6 7 8 9 10 11 12 13 14
814
FTUS46 KMTR 292339
TAFSJC
TAF
KSJC 292339Z 3000/3024 31013KT P6SM SCT150
     FM300300 30010KT P6SM SCT150
     FM300900 30006KT 6SM -DZ BR BKN008 OVC015
     FM301600 30005KT P6SM SCT015 SCT150
     FM301900 31015G20KT P6SM SCT015 BKN150=

USA.gov is the U.S. government's official web portal to all federal, state and local government web resources and services.